Fitchburg, MA

1:19 AM EST on December 13, 2019 (GMT -0500)
Fitchburg Municipal

Weather History for KFIT - October, 2019

Change the Weather History Date:

Thursday, October 24, 2019

  Actual Average (KORH) Record (KORH)
Temperature  
Mean Temperature 51 °F -  
Max Temperature 68 °F 57 °F 78 °F (1963)
Min Temperature 34 °F 39 °F 20 °F (1969)
Degree Days  
Heating Degree Days 14    
Growing Degree Days 1 (Base 50)    
Moisture  
Dew Point 35 °F    
Average Humidity 58    
Maximum Humidity 93    
Minimum Humidity 27    
Precipitation  
Precipitation 0.00 in - - ()
Sea Level Pressure  
Sea Level Pressure 30.24 in    
Wind  
Wind Speed 4 mph (SSW)    
Max Wind Speed 17 mph    
Max Gust Speed 23 mph    
Visibility 10 miles    
Events      
Averages and records for this station are not official NWS values.
T = Trace of Precipitation, MM = Missing Value Source: NWS Daily Summary

Daily Weather History Graph

Daily Weather History Graph

Search for Another Location

Airport or City:

Astronomy

Oct. 24, 2019 Rise Set
Actual Time 7:10 AM EDT 5:51 PM EDT
Civil Twilight 6:41 AM EDT 6:20 PM EDT
Nautical Twilight 6:08 AM EDT 6:52 PM EDT
Astronomical Twilight 5:36 AM EDT 7:25 PM EDT
Moon 2:28 AM EDT (10/24) 4:24 PM EDT (10/24)
Length of Visible Light 11h 38m
Length of Day
10h 40m
Waning Crescent, 17% of the Moon is Illuminated
Oct 24
Waning Crescent
Oct 27
New
Nov 4
First Quarter
Nov 12
Full
Nov 19
Last Quarter

Hourly Weather History & Observations

Time (EDT) Temp. Windchill Dew Point Humidity Pressure Visibility Wind Dir Wind Speed Gust Speed Precip Events Conditions
12:52 AM 39.9 °F - 37.0 °F 89% 30.14 in 10.0 mi Calm Calm - N/A   Clear
1:52 AM 36.0 °F - 33.1 °F 89% 30.17 in 10.0 mi Calm Calm - N/A   Clear
2:52 AM 37.9 °F 35.5 °F 35.1 °F 89% 30.18 in 10.0 mi North 3.5 mph - N/A   Clear
3:52 AM 36.0 °F - 33.1 °F 89% 30.19 in 4.0 mi Calm Calm - N/A   Clear
4:52 AM 36.0 °F - 34.0 °F 93% 30.23 in 10.0 mi Calm Calm - N/A   Clear
5:52 AM 36.0 °F - 33.1 °F 89% 30.25 in 10.0 mi Calm Calm - N/A   Clear
6:52 AM 34.0 °F - 30.9 °F 89% 30.26 in 10.0 mi Calm Calm - N/A   Clear
7:52 AM 36.0 °F - 34.0 °F 93% 30.28 in 10.0 mi Calm Calm - N/A   Clear
8:52 AM 43.0 °F - 37.9 °F 82% 30.28 in 10.0 mi Calm Calm - N/A   Clear
9:52 AM 52.0 °F - 37.9 °F 59% 30.29 in 10.0 mi Calm Calm - N/A   Clear
10:52 AM 60.1 °F - 33.1 °F 36% 30.30 in - North - - N/A   Unknown
11:52 AM 61.0 °F - 32.0 °F 34% 30.28 in 10.0 mi SSW 13.8 mph 23.0 mph N/A   Clear
12:52 PM 64.9 °F - 34.0 °F 32% 30.25 in 10.0 mi SSW 12.7 mph 20.7 mph N/A   Clear
1:52 PM 66.0 °F - 33.1 °F 29% 30.23 in 10.0 mi SSW 17.3 mph 23.0 mph N/A   Clear
2:52 PM 66.9 °F - 33.1 °F 28% 30.21 in 10.0 mi SSW 15.0 mph 23.0 mph N/A   Clear
3:52 PM 68.0 °F - 33.1 °F 27% 30.21 in 10.0 mi SSW 12.7 mph - N/A   Clear
4:52 PM 66.0 °F - 33.1 °F 29% 30.21 in 10.0 mi SSW 10.4 mph 17.3 mph N/A   Clear
5:52 PM 62.1 °F - 36.0 °F 38% 30.21 in 10.0 mi South 5.8 mph - N/A   Clear
6:52 PM 60.1 °F - 37.0 °F 42% 30.22 in 10.0 mi South 8.1 mph - N/A   Clear
7:52 PM 57.9 °F - 36.0 °F 44% 30.23 in 10.0 mi South 8.1 mph - N/A   Clear
8:52 PM 55.9 °F - 35.1 °F 45% 30.25 in 10.0 mi SSW 3.5 mph - N/A   Clear
9:52 PM 55.0 °F - 36.0 °F 49% 30.26 in 10.0 mi SSW 3.5 mph - N/A   Clear
10:52 PM 54.0 °F - 36.0 °F 51% 30.27 in 10.0 mi Calm Calm - N/A   Clear
11:52 PM 55.0 °F - 37.0 °F 51% 30.27 in 10.0 mi West 9.2 mph - N/A   Clear